TimeEDT,TemperatureF,Dew PointF,Humidity,Sea Level PressureIn,VisibilityMPH,Wind Direction,Wind SpeedMPH,Gust SpeedMPH,PrecipitationIn,Events,Conditions,WindDirDegrees,DateUTC
12:55 AM,61.7,59.4,92,30.17,10.0,East,5.8,-,N/A,,Overcast,90,2012-10-25 04:55:00
1:44 AM,60.8,59.0,94,30.18,10.0,Variable,4.6,-,N/A,,Overcast,0,2012-10-25 05:44:00
1:55 AM,61.5,59.2,92,30.18,10.0,Variable,4.6,-,N/A,,Overcast,0,2012-10-25 05:55:00
2:06 AM,60.8,59.0,94,30.18,10.0,East,4.6,-,N/A,,Overcast,80,2012-10-25 06:06:00
2:13 AM,60.8,59.0,94,30.18,10.0,Variable,5.8,-,N/A,,Overcast,0,2012-10-25 06:13:00
2:43 AM,60.8,59.0,94,30.17,10.0,East,5.8,-,N/A,,Overcast,90,2012-10-25 06:43:00
2:44 AM,60.8,59.0,94,30.18,10.0,Variable,4.6,-,N/A,,Overcast,0,2012-10-25 06:44:00
2:55 AM,61.5,58.8,91,30.18,10.0,ESE,4.6,-,N/A,,Overcast,110,2012-10-25 06:55:00
2:56 AM,60.8,59.0,94,30.18,10.0,East,4.6,-,N/A,,Overcast,100,2012-10-25 06:56:00
3:07 AM,60.8,59.0,94,30.17,10.0,East,3.5,-,N/A,,Overcast,90,2012-10-25 07:07:00
3:55 AM,61.5,58.8,91,30.16,10.0,East,4.6,-,N/A,,Overcast,90,2012-10-25 07:55:00
4:55 AM,61.7,58.8,90,30.17,10.0,East,3.5,-,N/A,,Overcast,100,2012-10-25 08:55:00
5:38 AM,60.8,59.0,94,30.18,10.0,Calm,Calm,-,N/A,,Overcast,0,2012-10-25 09:38:00
5:47 AM,60.8,59.0,94,30.18,10.0,ENE,3.5,-,N/A,,Overcast,60,2012-10-25 09:47:00
5:53 AM,60.8,59.0,94,30.18,10.0,East,3.5,-,N/A,,Overcast,80,2012-10-25 09:53:00
5:55 AM,61.5,58.6,90,30.18,10.0,Variable,3.5,-,N/A,,Overcast,0,2012-10-25 09:55:00
6:03 AM,60.8,59.0,94,30.18,10.0,East,4.6,-,N/A,,Overcast,90,2012-10-25 10:03:00
6:19 AM,60.8,59.0,94,30.18,10.0,ENE,4.6,-,N/A,,Overcast,70,2012-10-25 10:19:00
6:23 AM,60.8,59.0,94,30.18,10.0,Variable,4.6,-,N/A,,Overcast,0,2012-10-25 10:23:00
6:55 AM,61.5,59.0,91,30.19,10.0,ENE,8.1,-,N/A,,Overcast,70,2012-10-25 10:55:00
7:50 AM,60.8,59.0,94,30.21,10.0,East,8.1,-,N/A,,Overcast,80,2012-10-25 11:50:00
7:55 AM,61.7,58.8,90,30.21,10.0,East,6.9,-,N/A,,Overcast,80,2012-10-25 11:55:00
8:12 AM,62.6,59.0,88,30.22,10.0,ENE,6.9,-,N/A,,Overcast,70,2012-10-25 12:12:00
8:33 AM,62.6,59.0,88,30.22,10.0,ENE,6.9,-,N/A,,Overcast,70,2012-10-25 12:33:00
8:55 AM,62.2,59.4,90,30.22,10.0,ENE,8.1,-,N/A,,Overcast,70,2012-10-25 12:55:00
9:32 AM,62.6,59.0,88,30.23,10.0,East,6.9,-,N/A,,Overcast,80,2012-10-25 13:32:00
9:42 AM,62.6,59.0,88,30.23,10.0,East,6.9,-,N/A,,Overcast,90,2012-10-25 13:42:00
9:55 AM,62.6,59.7,90,30.23,10.0,East,9.2,-,N/A,,Overcast,90,2012-10-25 13:55:00
10:25 AM,62.6,59.0,88,30.23,10.0,East,9.2,-,N/A,,Overcast,80,2012-10-25 14:25:00
10:55 AM,64.2,59.4,84,30.23,10.0,East,8.1,-,N/A,,Overcast,90,2012-10-25 14:55:00
11:55 AM,64.4,58.8,82,30.23,10.0,ESE,9.2,-,N/A,,Overcast,120,2012-10-25 15:55:00
12:55 PM,64.6,59.4,83,30.22,10.0,East,8.1,-,N/A,,Overcast,100,2012-10-25 16:55:00
1:55 PM,65.3,58.8,80,30.21,10.0,East,9.2,-,N/A,,Overcast,100,2012-10-25 17:55:00
2:47 PM,64.4,59.0,83,30.20,10.0,East,6.9,-,N/A,,Overcast,100,2012-10-25 18:47:00
2:55 PM,65.3,59.0,80,30.21,10.0,East,6.9,-,N/A,,Overcast,90,2012-10-25 18:55:00
3:37 PM,64.4,59.0,83,30.21,10.0,East,6.9,-,N/A,,Overcast,90,2012-10-25 19:37:00
3:55 PM,64.4,59.5,84,30.21,10.0,East,8.1,-,N/A,,Overcast,100,2012-10-25 19:55:00
4:21 PM,64.4,59.0,83,30.21,10.0,East,5.8,-,N/A,,Overcast,100,2012-10-25 20:21:00
4:55 PM,64.2,59.5,85,30.20,10.0,East,9.2,-,N/A,,Overcast,100,2012-10-25 20:55:00
5:55 PM,63.7,59.5,86,30.21,10.0,ESE,5.8,-,N/A,,Overcast,110,2012-10-25 21:55:00
6:55 PM,63.3,59.5,87,30.22,10.0,East,8.1,-,N/A,,Overcast,100,2012-10-25 22:55:00
7:55 PM,63.0,60.1,90,30.23,10.0,East,8.1,-,N/A,,Overcast,90,2012-10-25 23:55:00
8:55 PM,62.4,60.1,92,30.22,10.0,East,8.1,-,N/A,,Overcast,80,2012-10-26 00:55:00
9:55 PM,62.2,60.3,93,30.21,10.0,ENE,6.9,-,N/A,,Overcast,70,2012-10-26 01:55:00
10:55 PM,62.1,60.6,95,30.20,10.0,ENE,5.8,-,N/A,,Overcast,70,2012-10-26 02:55:00
11:55 PM,61.0,59.9,96,30.19,10.0,NE,6.9,-,N/A,,Overcast,50,2012-10-26 03:55:00